�N����,����,�~����,�C��,���x,�C��,����,���ϕ���,�ő�u�ԕ���,�ő厞����,���˗�,�I�_���x,�n�����x,�ő啗���N��,DTYPE
"20/10/11","00:10",0.0,20.9,80.7,1007.4,345.6,1.5,3.6,345.0,0.00,17.5,20.1,"00:03:04",1
"20/10/11","00:20",0.0,20.9,80.7,1007.1,349.8,1.5,2.9,328.5,0.00,17.5,20.3,"00:15:28",1
"20/10/11","00:30",0.0,20.8,80.7,1006.9,339.9,1.5,4.2,351.7,0.00,17.4,20.1,"00:20:24",1
"20/10/11","00:40",0.0,20.7,81.1,1007.6,324.9,1.1,1.8,329.6,0.00,17.4,20.3,"00:30:08",1
"20/10/11","00:50",0.0,20.5,81.7,1007.4,329.6,1.2,2.5,331.2,0.00,17.3,20.1,"00:42:00",1
"20/10/11","01:00",0.0,20.3,82.2,1007.1,292.1,0.8,1.7,333.2,0.00,17.2,20.2,"00:58:56",1
"20/10/11","01:10",0.0,20.1,82.9,1007.1,325.0,0.7,1.9,347.9,0.00,17.1,20.1,"01:05:28",1
"20/10/11","01:20",0.0,20.0,83.4,1006.9,322.1,1.1,2.0,333.8,0.00,17.1,20.1,"01:11:44",1
"20/10/11","01:30",0.0,20.1,83.7,1006.9,299.7,1.1,2.1,315.8,0.00,17.3,20.1,"01:27:04",1
"20/10/11","01:40",0.0,20.2,83.9,1006.9,322.6,1.2,2.4,341.2,0.00,17.4,20.2,"01:34:24",1
"20/10/11","01:50",0.0,20.3,83.7,1007.1,306.9,1.1,2.0,317.6,0.00,17.5,20.3,"01:44:32",1
"20/10/11","02:00",0.0,20.3,83.6,1007.4,294.1,1.2,2.7,336.5,0.00,17.5,20.1,"01:52:24",1
"20/10/11","02:10",0.0,20.3,83.4,1006.9,338.8,1.2,3.2,326.8,0.00,17.4,20.3,"02:09:52",1
"20/10/11","02:20",0.0,20.3,83.2,1006.4,321.9,1.5,2.9,343.5,0.00,17.4,20.1,"02:10:32",1
"20/10/11","02:30",0.0,20.3,83.0,1006.7,313.9,1.0,1.7,324.0,0.00,17.4,20.0,"02:27:44",1
"20/10/11","02:40",0.0,20.0,83.0,1006.4,303.5,0.6,1.4,318.5,0.00,17.1,20.0,"02:36:32",1
"20/10/11","02:50",0.0,19.8,83.4,1006.9,305.1,0.7,1.7,323.0,0.00,16.9,19.9,"02:47:36",1
"20/10/11","03:00",0.0,19.6,84.0,1006.7,299.9,0.7,1.2,271.7,0.00,16.9,20.1,"02:58:24",1
"20/10/11","03:10",0.0,19.7,84.4,1006.4,307.6,0.8,1.4,329.9,0.00,17.0,20.0,"03:03:36",1
"20/10/11","03:20",0.0,19.6,84.7,1006.7,316.2,1.0,1.7,336.6,0.00,17.0,19.8,"03:18:16",1
"20/10/11","03:30",0.0,19.5,85.1,1006.4,294.4,1.1,2.1,301.5,0.00,17.0,20.0,"03:25:12",1
"20/10/11","03:40",0.0,19.4,85.1,1006.4,312.6,0.8,1.7,335.9,0.00,16.9,20.2,"03:30:40",1
"20/10/11","03:50",0.0,19.3,85.1,1006.2,331.2,1.2,2.5,332.3,0.00,16.8,20.1,"03:43:04",1
"20/10/11","04:00",0.0,19.5,84.8,1006.4,310.1,1.2,2.2,334.9,0.00,16.9,20.1,"03:58:24",1
"20/10/11","04:10",0.0,19.3,84.8,1006.4,290.9,0.8,1.4,351.7,0.00,16.7,19.9,"04:01:12",1
"20/10/11","04:20",0.0,19.3,85.0,1006.4,288.8,0.7,1.4,307.0,0.00,16.8,20.0,"04:10:08",1
"20/10/11","04:30",0.0,18.9,85.3,1006.4,323.5,1.0,1.9,335.2,0.00,16.4,19.8,"04:22:24",1
"20/10/11","04:40",0.0,18.6,86.0,1006.2,320.6,1.2,2.2,328.8,0.00,16.3,19.8,"04:37:20",1
"20/10/11","04:50",0.0,18.8,86.7,1006.9,336.0,1.1,3.1,337.7,0.00,16.6,19.8,"04:41:28",1
"20/10/11","05:00",0.0,18.5,87.0,1006.7,328.4,1.0,1.8,330.7,0.00,16.3,20.0,"04:57:12",1
"20/10/11","05:10",0.0,18.3,87.5,1006.9,323.1,0.7,2.2,331.5,0.00,16.2,19.9,"05:06:24",1
"20/10/11","05:20",0.0,17.9,88.0,1006.7,283.1,0.8,1.9,323.2,0.00,15.9,19.7,"05:11:12",1
"20/10/11","05:30",0.0,17.9,88.6,1007.1,339.0,0.8,2.4,338.0,0.00,16.0,19.9,"05:20:24",1
"20/10/11","05:40",0.0,17.8,89.2,1006.9,310.6,1.0,2.4,346.6,0.00,16.0,19.7,"05:35:36",1
"20/10/11","05:50",0.0,17.6,89.5,1007.1,284.3,0.8,1.7,334.0,0.00,15.9,19.7,"05:46:16",1
"20/10/11","06:00",0.0,17.3,89.8,1007.1,288.3,0.8,1.6,320.7,0.00,15.7,19.7,"05:57:36",1
"20/10/11","06:10",0.0,17.7,90.4,1007.1,349.7,1.0,2.6,46.3,0.00,16.1,19.5,"06:03:04",1
"20/10/11","06:20",0.0,17.8,90.8,1006.9,289.6,0.7,1.6,246.2,0.00,16.3,19.7,"06:13:12",1
"20/10/11","06:30",0.0,18.0,91.0,1007.6,301.4,1.0,2.1,335.8,0.00,16.5,19.6,"06:29:52",1
"20/10/11","06:40",0.0,18.0,91.2,1007.6,306.4,0.8,1.6,333.5,0.00,16.6,19.5,"06:31:52",1
"20/10/11","06:50",0.0,18.3,91.4,1007.4,320.5,1.1,1.9,335.4,0.00,16.9,19.6,"06:48:24",1
"20/10/11","07:00",0.0,18.5,91.6,1008.1,315.7,0.8,1.4,336.1,0.00,17.1,19.7,"06:52:32",1
"20/10/11","07:10",0.0,18.8,91.7,1007.8,332.4,1.0,1.4,320.8,0.01,17.5,19.6,"07:04:16",1
"20/10/11","07:20",0.0,19.2,91.8,1007.8,321.8,0.8,1.9,323.7,0.04,17.9,19.7,"07:14:56",1
"20/10/11","07:30",0.0,19.7,91.7,1008.1,310.4,1.3,2.5,331.9,0.05,18.4,19.6,"07:26:08",1
"20/10/11","07:40",0.0,20.2,91.1,1008.1,291.8,1.2,2.9,330.1,0.07,18.7,19.6,"07:35:28",1
"20/10/11","07:50",0.0,20.3,90.3,1007.8,265.8,1.0,1.9,256.3,0.07,18.7,19.9,"07:40:16",1
"20/10/11","08:00",0.0,20.5,90.1,1008.3,243.0,0.1,0.5,268.1,0.06,18.9,19.7,"07:51:04",1
"20/10/11","08:10",0.0,20.8,89.6,1008.1,264.1,0.7,1.7,241.3,0.08,19.1,19.9,"08:03:52",1
"20/10/11","08:20",0.0,21.1,88.7,1008.1,270.8,0.6,1.4,222.4,0.06,19.2,19.9,"08:11:04",1
"20/10/11","08:30",0.0,21.4,87.9,1007.8,336.5,0.1,0.5,306.3,0.10,19.4,19.9,"08:22:48",1
"20/10/11","08:40",0.0,21.5,87.0,1007.8,141.3,0.2,0.9,131.6,0.11,19.3,20.1,"08:36:00",1
"20/10/11","08:50",0.0,21.7,85.8,1008.1,184.6,0.3,1.2,229.5,0.10,19.3,20.0,"08:43:04",1
"20/10/11","09:00",0.0,22.1,84.7,1007.8,118.1,0.2,1.8,345.7,0.15,19.4,20.4,"08:50:02",1
"20/10/11","09:10",0.0,22.7,83.6,1007.8,280.6,0.7,1.7,354.0,0.22,19.8,20.4,"09:00:08",1
"20/10/11","09:20",0.0,23.1,81.0,1007.4,312.7,1.1,2.6,343.8,0.23,19.7,20.4,"09:17:44",1
"20/10/11","09:30",0.0,23.6,78.4,1007.1,278.2,1.0,2.7,274.4,0.20,19.7,20.7,"09:23:52",1
"20/10/11","09:40",0.0,23.1,77.9,1007.1,306.3,1.2,2.7,344.2,0.13,19.1,20.7,"09:34:08",1
"20/10/11","09:50",0.0,23.2,78.1,1007.1,269.5,0.8,2.1,266.1,0.15,19.2,20.7,"09:44:56",1
"20/10/11","10:00",0.0,23.4,77.3,1006.9,293.2,0.8,1.8,271.3,0.17,19.2,21.0,"09:54:56",1
"20/10/11","10:10",0.0,23.6,76.6,1006.9,292.6,1.2,3.2,340.1,0.22,19.3,21.1,"10:08:08",1
"20/10/11","10:20",0.0,24.2,74.8,1006.4,318.1,1.3,3.1,6.0,0.27,19.5,21.1,"10:15:36",1
"20/10/11","10:30",0.0,23.6,75.0,1006.9,303.0,1.1,3.1,238.0,0.07,19.0,21.2,"10:23:44",1
"20/10/11","10:40",0.0,23.2,76.3,1007.1,314.2,1.5,3.2,330.7,0.07,18.8,21.1,"10:36:40",1
"20/10/11","10:50",0.0,23.0,77.4,1006.7,301.7,1.1,2.4,330.6,0.07,18.9,21.0,"10:41:12",1
"20/10/11","11:00",0.0,23.4,77.5,1006.7,332.7,1.5,3.6,328.9,0.15,19.3,21.3,"10:50:56",1
"20/10/11","11:10",0.0,23.8,75.9,1006.4,324.6,1.6,3.1,335.4,0.21,19.3,21.5,"11:02:16",1
"20/10/11","11:20",0.0,24.0,73.5,1006.2,340.3,1.8,3.6,344.2,0.23,19.0,21.3,"11:10:02",1
"20/10/11","11:30",0.0,24.9,72.7,1006.0,346.5,1.6,4.0,349.4,0.44,19.7,21.7,"11:21:20",1
"20/10/11","11:40",0.0,26.2,69.8,1005.7,255.0,0.7,2.7,212.6,0.56,20.3,21.7,"11:31:20",1
"20/10/11","11:50",0.0,26.4,64.8,1005.0,332.7,1.1,2.9,355.1,0.37,19.3,21.9,"11:49:12",1
"20/10/11","12:00",0.0,25.7,65.2,1004.5,355.0,1.8,5.6,334.0,0.37,18.7,21.9,"11:50:56",1
"20/10/11","12:10",0.0,25.4,65.1,1005.0,329.2,1.8,4.2,335.4,0.22,18.4,22.2,"12:06:56",1
"20/10/11","12:20",0.0,26.1,66.6,1004.8,286.8,1.3,3.2,226.8,0.37,19.4,22.2,"12:17:28",1
"20/10/11","12:30",0.0,26.0,65.9,1003.8,277.3,1.1,3.2,344.8,0.28,19.2,22.3,"12:21:20",1
"20/10/11","12:40",0.0,25.4,64.4,1004.8,345.2,1.5,3.5,336.8,0.11,18.2,22.4,"12:31:20",1
"20/10/11","12:50",0.0,25.3,65.4,1004.3,342.0,1.2,3.2,39.8,0.09,18.4,22.3,"12:40:48",1
"20/10/11","13:00",0.0,24.9,65.7,1004.3,343.2,1.5,3.6,319.4,0.11,18.1,22.6,"12:51:20",1
"20/10/11","13:10",0.0,25.4,66.3,1004.5,349.0,1.2,2.5,354.4,0.18,18.7,22.2,"13:01:36",1
"20/10/11","13:20",0.0,25.4,65.9,1004.3,342.3,1.8,3.9,27.7,0.19,18.6,22.4,"13:14:32",1
"20/10/11","13:30",0.0,25.1,66.4,1004.1,334.2,2.1,4.0,328.9,0.15,18.4,22.6,"13:20:48",1
"20/10/11","13:40",0.0,24.8,66.8,1004.5,352.9,1.8,5.8,357.5,0.11,18.3,22.4,"13:38:40",1
"20/10/11","13:50",0.0,24.4,67.1,1004.5,349.5,2.3,5.6,342.5,0.10,17.9,22.5,"13:48:32",1
"20/10/11","14:00",0.0,24.4,67.5,1004.3,340.9,1.7,4.3,349.1,0.12,18.0,22.5,"13:50:08",1
"20/10/11","14:10",0.0,24.6,67.2,1004.3,344.7,1.5,3.2,339.9,0.15,18.2,22.4,"14:06:24",1
"20/10/11","14:20",0.0,24.6,66.9,1004.1,353.0,1.7,4.4,356.8,0.14,18.1,22.3,"14:19:04",1
"20/10/11","14:30",0.0,24.4,67.3,1003.8,337.0,2.3,5.1,342.1,0.12,18.0,22.4,"14:23:52",1
"20/10/11","14:40",0.0,24.1,67.7,1004.5,350.1,2.5,4.3,349.7,0.10,17.8,22.3,"14:34:08",1
"20/10/11","14:50",0.0,23.9,68.5,1004.3,346.6,2.0,6.6,348.7,0.07,17.8,22.2,"14:42:00",1
"20/10/11","15:00",0.0,23.8,70.2,1004.5,349.1,1.7,4.0,344.2,0.08,18.1,22.2,"14:50:56",1
"20/10/11","15:10",0.0,24.9,69.1,1004.5,344.5,2.3,5.6,354.1,0.31,18.9,22.4,"15:02:48",1
"20/10/11","15:20",0.0,25.1,66.9,1004.1,339.1,2.3,5.1,329.6,0.28,18.6,22.4,"15:10:32",1
"20/10/11","15:30",0.0,24.7,66.6,1004.1,345.0,2.5,5.4,350.3,0.21,18.1,22.5,"15:21:52",1
"20/10/11","15:40",0.0,23.9,69.0,1004.3,349.0,2.8,6.7,343.2,0.11,17.9,22.5,"15:36:32",1
"20/10/11","15:50",0.0,23.9,69.0,1004.1,346.0,2.0,3.9,330.9,0.10,17.9,22.5,"15:45:28",1
"20/10/11","16:00",0.0,23.7,69.8,1004.1,337.0,1.8,4.0,345.1,0.07,17.9,22.4,"15:58:16",1
"20/10/11","16:10",0.0,23.6,70.4,1004.3,334.9,1.8,3.6,34.7,0.08,17.9,22.2,"16:09:44",1
"20/10/11","16:20",0.0,23.5,70.2,1004.5,329.7,2.7,5.1,319.9,0.08,17.8,22.3,"16:15:12",1
"20/10/11","16:30",0.0,23.4,70.5,1004.3,333.3,2.5,5.4,341.2,0.06,17.8,22.2,"16:22:16",1
"20/10/11","16:40",0.0,23.1,71.0,1004.3,330.8,3.1,5.2,330.2,0.04,17.6,22.2,"16:32:32",1
"20/10/11","16:50",0.0,22.7,71.8,1004.5,333.4,2.8,5.2,350.6,0.01,17.4,22.1,"16:45:04",1
"20/10/11","17:00",0.0,22.3,72.3,1004.5,334.0,2.8,5.1,338.3,0.00,17.1,22.2,"16:56:00",1
"20/10/11","17:10",0.0,22.0,73.3,1004.5,332.9,2.6,5.6,327.5,0.00,17.0,22.1,"17:07:20",1
"20/10/11","17:20",0.0,21.8,74.3,1005.0,334.7,2.5,4.8,347.4,0.00,17.1,21.9,"17:12:32",1
"20/10/11","17:30",0.0,21.5,75.4,1005.0,338.3,2.1,4.2,335.1,0.00,17.0,21.8,"17:21:04",1
"20/10/11","17:40",0.0,21.1,76.6,1005.0,333.4,1.5,3.4,341.9,0.00,16.9,21.7,"17:36:48",1
"20/10/11","17:50",0.0,20.9,77.9,1005.0,334.6,1.8,4.0,306.8,0.00,16.9,21.6,"17:48:00",1
"20/10/11","18:00",0.0,20.8,78.5,1004.8,334.2,2.3,4.0,344.5,0.00,17.0,21.5,"17:51:04",1
"20/10/11","18:10",0.0,20.7,78.9,1005.5,336.1,2.5,4.1,325.2,0.00,16.9,21.5,"18:09:36",1
"20/10/11","18:20",0.0,20.6,79.0,1005.2,334.6,2.5,4.7,341.2,0.00,16.9,21.3,"18:15:04",1
"20/10/11","18:30",0.0,20.5,79.1,1005.5,332.4,2.0,3.9,336.8,0.00,16.8,21.4,"18:21:12",1
"20/10/11","18:40",0.0,20.4,79.3,1005.7,331.1,2.2,4.1,335.8,0.00,16.7,21.4,"18:35:44",1
"20/10/11","18:50",0.0,20.4,79.3,1006.0,327.2,2.0,4.3,324.6,0.00,16.7,21.3,"18:41:28",1
"20/10/11","19:00",0.0,20.4,79.5,1005.7,329.3,2.1,4.5,345.1,0.00,16.8,21.1,"18:57:52",1
"20/10/11","19:10",0.0,20.4,79.6,1006.2,322.3,2.5,4.5,338.2,0.00,16.8,21.1,"19:02:24",1
"20/10/11","19:20",0.0,20.4,79.6,1006.2,302.9,2.0,4.1,331.6,0.00,16.8,21.0,"19:11:04",1
"20/10/11","19:30",0.0,20.1,79.8,1006.4,302.2,1.3,2.9,317.1,0.00,16.5,20.8,"19:21:44",1
"20/10/11","19:40",0.0,19.6,80.7,1006.4,280.5,1.0,2.6,325.7,0.00,16.2,21.0,"19:37:04",1
"20/10/11","19:50",0.0,19.5,81.9,1006.7,315.2,1.6,2.7,335.6,0.00,16.4,20.8,"19:41:20",1
"20/10/11","20:00",0.0,19.4,82.7,1006.9,326.7,1.6,2.8,335.6,0.00,16.4,20.6,"19:55:44",1
"20/10/11","20:10",0.0,19.5,83.1,1007.1,323.8,2.0,3.3,338.7,0.00,16.6,20.6,"20:01:04",1
"20/10/11","20:20",0.0,19.4,83.4,1006.7,335.2,1.8,3.5,341.9,0.00,16.6,20.7,"20:10:16",1
"20/10/11","20:30",0.0,19.5,83.6,1006.9,333.3,1.8,3.3,333.3,0.00,16.7,20.6,"20:26:16",1
"20/10/11","20:40",0.0,19.5,83.7,1006.7,325.4,1.6,2.6,326.1,0.00,16.7,20.7,"20:37:44",1
"20/10/11","20:50",0.0,19.4,83.6,1006.4,303.1,1.1,2.8,339.0,0.00,16.6,20.6,"20:40:08",1
"20/10/11","21:00",0.0,19.0,83.9,1007.1,298.0,1.1,2.5,325.4,0.00,16.3,20.5,"20:58:32",1
"20/10/11","21:10",0.0,18.9,84.6,1006.9,313.1,1.3,2.2,334.9,0.00,16.3,20.4,"21:09:12",1
"20/10/11","21:20",0.0,19.0,85.3,1006.9,327.0,1.6,2.7,323.4,0.00,16.5,20.4,"21:16:40",1
"20/10/11","21:30",0.0,19.0,85.6,1006.9,322.4,1.5,3.5,338.4,0.00,16.6,20.2,"21:21:20",1
"20/10/11","21:40",0.0,18.5,85.9,1007.1,320.3,0.5,1.3,334.6,0.00,16.1,20.3,"21:38:00",1
"20/10/11","21:50",0.0,18.1,86.5,1006.9,316.2,1.0,1.6,353.5,0.00,15.9,20.2,"21:47:28",1
"20/10/11","22:00",0.0,17.9,87.0,1006.7,324.8,1.3,2.1,335.9,0.00,15.7,20.2,"21:56:24",1
"20/10/11","22:10",0.0,17.9,87.7,1006.9,326.8,1.7,2.4,347.4,0.00,15.9,20.2,"22:04:32",1
"20/10/11","22:20",0.0,17.7,88.4,1006.9,326.0,1.6,2.6,336.6,0.00,15.8,20.2,"22:15:36",1
"20/10/11","22:30",0.0,17.9,89.0,1006.4,321.1,1.6,2.8,322.6,0.00,16.1,20.2,"22:26:00",1
"20/10/11","22:40",0.0,17.9,89.4,1006.4,326.7,1.5,2.9,335.1,0.00,16.2,20.1,"22:38:48",1
"20/10/11","22:50",0.0,17.9,89.8,1006.9,330.3,1.8,2.9,332.8,0.00,16.2,20.1,"22:44:24",1
"20/10/11","23:00",0.0,17.9,90.1,1006.4,321.5,1.7,3.1,333.6,0.00,16.3,20.0,"22:58:24",1
"20/10/11","23:10",0.0,17.9,90.4,1006.4,324.2,2.1,3.1,335.4,0.00,16.3,20.0,"23:02:40",1
"20/10/11","23:20",0.0,18.0,90.6,1006.9,323.5,2.0,3.4,339.9,0.00,16.5,19.9,"23:16:32",1
"20/10/11","23:30",0.0,18.1,90.7,1006.9,321.2,2.3,4.4,338.0,0.00,16.6,19.9,"23:25:36",1
"20/10/11","23:40",0.0,18.1,90.7,1006.9,317.0,2.2,3.4,341.4,0.00,16.6,19.9,"23:37:04",1
"20/10/11","23:50",0.0,17.8,90.8,1006.7,326.3,1.6,2.9,327.0,0.00,16.3,19.7,"23:44:00",1
"20/10/11","24:00",0.0,17.7,91.0,1007.1,323.5,1.5,2.8,323.6,0.00,16.3,19.8,"23:54:16",1
